Time,TemperatureF,DewpointF,PressureIn,WindDirection,WindDirectionDegrees,WindSpeedMPH,WindSpeedGustMPH,Humidity,HourlyPrecipIn,Conditions,Clouds,dailyrainin,SoftwareType,DateUTC
2013-07-13 00:01:00,57.3,55.0,29.84,NW,312,1.0,3.0,92,0.00,,,0.00,WeatherCatV1.14B232,2013-07-13 06:01:00,
2013-07-13 00:06:00,57.3,55.0,29.83,NNW,338,0.0,0.0,92,0.00,,,0.00,WeatherCatV1.14B232,2013-07-13 06:06:00,
2013-07-13 00:11:00,57.5,55.2,29.83,NNW,342,0.0,1.0,92,0.00,,,0.00,WeatherCatV1.14B232,2013-07-13 06:11:00,
2013-07-13 00:16:00,57.5,55.2,29.84,NNW,342,0.0,0.0,92,0.00,,,0.00,WeatherCatV1.14B232,2013-07-13 06:16:00,
2013-07-13 00:21:00,57.5,55.2,29.83,NNW,343,0.0,0.0,92,0.00,,,0.00,WeatherCatV1.14B232,2013-07-13 06:21:00,
2013-07-13 00:26:00,57.5,55.2,29.84,NNW,342,0.0,0.0,92,0.00,,,0.00,WeatherCatV1.14B232,2013-07-13 06:26:00,
2013-07-13 00:31:00,57.5,55.2,29.84,NNW,342,0.0,0.0,92,0.00,,,0.00,WeatherCatV1.14B232,2013-07-13 06:31:00,
2013-07-13 00:36:00,57.6,55.3,29.84,NNW,343,0.0,0.0,92,0.00,,,0.00,WeatherCatV1.14B232,2013-07-13 06:36:00,
2013-07-13 00:41:00,58.0,55.4,29.84,NNW,343,0.0,0.0,91,0.00,,,0.00,WeatherCatV1.14B232,2013-07-13 06:41:00,
2013-07-13 00:46:00,58.2,55.6,29.84,NW,315,1.0,1.0,91,0.00,,,0.00,WeatherCatV1.14B232,2013-07-13 06:46:00,
2013-07-13 00:51:00,58.4,55.8,29.84,WNW,295,1.0,1.0,91,0.00,,,0.00,WeatherCatV1.14B232,2013-07-13 06:51:00,
2013-07-13 00:56:00,58.4,55.8,29.84,WNW,291,0.0,2.0,91,0.00,,,0.01,WeatherCatV1.14B232,2013-07-13 06:56:00,
2013-07-13 01:01:00,58.6,55.7,29.84,WNW,296,0.0,2.0,90,0.00,,,0.01,WeatherCatV1.14B232,2013-07-13 07:01:00,
2013-07-13 01:06:00,58.7,56.1,29.84,NNW,337,0.0,0.0,91,0.00,,,0.01,WeatherCatV1.14B232,2013-07-13 07:06:00,
2013-07-13 01:11:00,58.8,56.2,29.84,NNW,338,0.0,1.0,91,0.00,,,0.01,WeatherCatV1.14B232,2013-07-13 07:11:00,
2013-07-13 01:16:00,58.7,56.4,29.84,SSE,160,1.0,2.0,92,0.00,,,0.01,WeatherCatV1.14B232,2013-07-13 07:16:00,
2013-07-13 01:21:00,58.6,56.3,29.84,SSE,157,0.0,2.0,92,0.00,,,0.01,WeatherCatV1.14B232,2013-07-13 07:21:00,
2013-07-13 01:26:00,58.6,56.3,29.84,SSE,157,0.0,1.0,92,0.00,,,0.01,WeatherCatV1.14B232,2013-07-13 07:26:00,
2013-07-13 01:31:00,58.6,56.3,29.84,SSE,156,0.0,0.0,92,0.00,,,0.01,WeatherCatV1.14B232,2013-07-13 07:31:00,
2013-07-13 01:36:00,58.6,56.6,29.84,SSE,158,0.0,0.0,93,0.00,,,0.01,WeatherCatV1.14B232,2013-07-13 07:36:00,
2013-07-13 01:41:00,58.6,56.6,29.84,SSE,158,0.0,0.0,93,0.00,,,0.01,WeatherCatV1.14B232,2013-07-13 07:41:00,
2013-07-13 01:46:00,58.5,56.5,29.84,East,98,0.0,1.0,93,0.00,,,0.01,WeatherCatV1.14B232,2013-07-13 07:46:00,
2013-07-13 01:51:00,58.6,56.6,29.84,East,98,0.0,0.0,93,0.00,,,0.01,WeatherCatV1.14B232,2013-07-13 07:51:00,
2013-07-13 01:56:00,58.7,56.7,29.84,East,96,0.0,0.0,93,0.00,,,0.01,WeatherCatV1.14B232,2013-07-13 07:56:00,
2013-07-13 02:01:00,58.6,56.6,29.83,ESE,102,0.0,1.0,93,0.00,,,0.01,WeatherCatV1.14B232,2013-07-13 08:01:00,
2013-07-13 02:06:00,58.5,56.5,29.83,East,101,0.0,0.0,93,0.00,,,0.01,WeatherCatV1.14B232,2013-07-13 08:06:00,
2013-07-13 02:11:00,58.4,56.4,29.83,East,101,0.0,0.0,93,0.00,,,0.01,WeatherCatV1.14B232,2013-07-13 08:11:00,
2013-07-13 02:16:00,58.2,56.2,29.83,ESE,102,0.0,0.0,93,0.00,,,0.01,WeatherCatV1.14B232,2013-07-13 08:16:00,
2013-07-13 02:21:00,58.1,56.4,29.83,East,101,0.0,0.0,94,0.00,,,0.01,WeatherCatV1.14B232,2013-07-13 08:21:00,
2013-07-13 02:26:00,58.1,56.4,29.84,East,101,0.0,0.0,94,0.00,,,0.01,WeatherCatV1.14B232,2013-07-13 08:26:00,
2013-07-13 02:31:00,58.0,56.0,29.84,East,101,0.0,0.0,93,0.00,,,0.01,WeatherCatV1.14B232,2013-07-13 08:31:00,
2013-07-13 02:36:00,57.9,55.9,29.84,East,101,0.0,0.0,93,0.00,,,0.01,WeatherCatV1.14B232,2013-07-13 08:36:00,
2013-07-13 02:41:00,57.9,56.2,29.84,East,101,0.0,0.0,94,0.00,,,0.01,WeatherCatV1.14B232,2013-07-13 08:41:00,
2013-07-13 02:46:00,58.0,56.6,29.84,East,101,0.0,0.0,95,0.00,,,0.01,WeatherCatV1.14B232,2013-07-13 08:46:00,
2013-07-13 02:51:00,58.0,56.3,29.84,ESE,102,0.0,0.0,94,0.00,,,0.01,WeatherCatV1.14B232,2013-07-13 08:51:00,
2013-07-13 02:56:00,57.9,56.2,29.84,ESE,102,0.0,0.0,94,0.00,,,0.01,WeatherCatV1.14B232,2013-07-13 08:56:00,
2013-07-13 03:01:00,57.8,56.1,29.84,ESE,102,0.0,0.0,94,0.00,,,0.01,WeatherCatV1.14B232,2013-07-13 09:01:00,
2013-07-13 03:06:00,57.8,56.4,29.84,East,101,0.0,0.0,95,0.00,,,0.01,WeatherCatV1.14B232,2013-07-13 09:06:00,
2013-07-13 03:11:00,57.9,56.5,29.84,ESE,102,0.0,0.0,95,0.00,,,0.01,WeatherCatV1.14B232,2013-07-13 09:11:00,
2013-07-13 03:16:00,58.0,56.6,29.85,ESE,102,0.0,0.0,95,0.00,,,0.01,WeatherCatV1.14B232,2013-07-13 09:16:00,
2013-07-13 03:21:00,57.9,56.5,29.84,North,11,0.0,1.0,95,0.00,,,0.01,WeatherCatV1.14B232,2013-07-13 09:21:00,
2013-07-13 03:27:00,57.9,56.2,29.85,North,9,0.0,1.0,94,0.00,,,0.01,WeatherCatV1.14B232,2013-07-13 09:27:00,
2013-07-13 03:32:00,58.0,56.3,29.84,NNW,330,1.0,1.0,94,0.00,,,0.01,WeatherCatV1.14B232,2013-07-13 09:32:00,
2013-07-13 03:37:00,58.1,56.4,29.84,NNW,335,0.0,0.0,94,0.00,,,0.01,WeatherCatV1.14B232,2013-07-13 09:37:00,
2013-07-13 03:42:00,58.1,56.4,29.84,NNW,335,0.0,0.0,94,0.00,,,0.01,WeatherCatV1.14B232,2013-07-13 09:42:00,
2013-07-13 03:47:00,58.1,56.4,29.84,NNW,336,0.0,0.0,94,0.00,,,0.01,WeatherCatV1.14B232,2013-07-13 09:47:00,
2013-07-13 03:52:00,58.1,56.4,29.84,NNW,335,0.0,0.0,94,0.00,,,0.01,WeatherCatV1.14B232,2013-07-13 09:52:00,
2013-07-13 03:57:00,58.0,56.3,29.85,NNW,336,0.0,0.0,94,0.00,,,0.01,WeatherCatV1.14B232,2013-07-13 09:57:00,
2013-07-13 04:02:00,57.9,56.2,29.85,NNW,336,0.0,0.0,94,0.00,,,0.01,WeatherCatV1.14B232,2013-07-13 10:02:00,
2013-07-13 04:07:00,57.8,56.1,29.85,NNW,335,0.0,0.0,94,0.00,,,0.01,WeatherCatV1.14B232,2013-07-13 10:07:00,
2013-07-13 04:12:00,57.8,56.1,29.85,NNW,335,0.0,0.0,94,0.00,,,0.01,WeatherCatV1.14B232,2013-07-13 10:12:00,
2013-07-13 04:17:00,57.9,56.5,29.85,North,6,0.0,1.0,95,0.00,,,0.01,WeatherCatV1.14B232,2013-07-13 10:17:00,
2013-07-13 04:22:00,58.0,56.3,29.85,North,6,0.0,0.0,94,0.00,,,0.01,WeatherCatV1.14B232,2013-07-13 10:22:00,
2013-07-13 04:27:00,57.9,56.2,29.85,North,6,0.0,0.0,94,0.00,,,0.01,WeatherCatV1.14B232,2013-07-13 10:27:00,
2013-07-13 04:32:00,57.8,56.1,29.85,NW,316,0.0,0.0,94,0.00,,,0.01,WeatherCatV1.14B232,2013-07-13 10:32:00,
2013-07-13 04:37:00,58.0,56.3,29.85,WNW,291,0.0,0.0,94,0.00,,,0.01,WeatherCatV1.14B232,2013-07-13 10:37:00,
2013-07-13 04:42:00,58.0,56.0,29.85,East,94,0.0,1.0,93,0.00,,,0.01,WeatherCatV1.14B232,2013-07-13 10:42:00,
2013-07-13 04:47:00,58.2,56.2,29.85,East,93,0.0,0.0,93,0.00,,,0.01,WeatherCatV1.14B232,2013-07-13 10:47:00,
2013-07-13 04:52:00,58.4,56.1,29.85,East,93,0.0,0.0,92,0.00,,,0.01,WeatherCatV1.14B232,2013-07-13 10:52:00,
2013-07-13 04:57:00,58.4,56.4,29.85,East,93,0.0,0.0,93,0.00,,,0.01,WeatherCatV1.14B232,2013-07-13 10:57:00,
2013-07-13 05:02:00,58.3,56.3,29.85,East,93,0.0,0.0,93,0.00,,,0.01,WeatherCatV1.14B232,2013-07-13 11:02:00,
2013-07-13 05:07:00,58.2,56.2,29.85,East,93,0.0,0.0,93,0.00,,,0.01,WeatherCatV1.14B232,2013-07-13 11:07:00,
2013-07-13 05:12:00,58.1,56.1,29.85,East,93,0.0,0.0,93,0.00,,,0.01,WeatherCatV1.14B232,2013-07-13 11:12:00,
2013-07-13 05:17:00,58.0,56.3,29.85,East,94,0.0,0.0,94,0.00,,,0.01,WeatherCatV1.14B232,2013-07-13 11:17:00,
2013-07-13 05:22:00,58.0,56.3,29.85,East,94,0.0,0.0,94,0.00,,,0.01,WeatherCatV1.14B232,2013-07-13 11:22:00,
2013-07-13 05:27:00,57.9,56.2,29.86,East,93,0.0,0.0,94,0.00,,,0.01,WeatherCatV1.14B232,2013-07-13 11:27:00,
2013-07-13 05:32:00,57.9,56.2,29.86,East,94,0.0,0.0,94,0.00,,,0.01,WeatherCatV1.14B232,2013-07-13 11:32:00,
2013-07-13 05:37:00,57.9,56.2,29.86,East,93,0.0,0.0,94,0.00,,,0.01,WeatherCatV1.14B232,2013-07-13 11:37:00,
2013-07-13 05:42:00,57.9,56.2,29.86,East,93,0.0,0.0,94,0.00,,,0.01,WeatherCatV1.14B232,2013-07-13 11:42:00,
2013-07-13 05:47:00,57.9,56.5,29.86,East,94,0.0,1.0,95,0.00,,,0.01,WeatherCatV1.14B232,2013-07-13 11:47:00,
2013-07-13 05:52:00,57.9,56.5,29.86,East,93,0.0,1.0,95,0.00,,,0.01,WeatherCatV1.14B232,2013-07-13 11:52:00,
2013-07-13 05:57:00,57.8,56.4,29.86,East,94,0.0,0.0,95,0.00,,,0.01,WeatherCatV1.14B232,2013-07-13 11:57:00,
2013-07-13 06:02:00,57.8,56.4,29.86,East,93,0.0,0.0,95,0.00,,,0.01,WeatherCatV1.14B232,2013-07-13 12:02:00,
2013-07-13 06:07:00,57.7,56.3,29.86,East,93,0.0,0.0,95,0.00,,,0.01,WeatherCatV1.14B232,2013-07-13 12:07:00,
2013-07-13 06:12:00,57.7,56.3,29.86,East,93,0.0,0.0,95,0.00,,,0.01,WeatherCatV1.14B232,2013-07-13 12:12:00,
2013-07-13 06:17:00,57.6,56.2,29.86,East,93,0.0,0.0,95,0.00,,,0.01,WeatherCatV1.14B232,2013-07-13 12:17:00,
2013-07-13 06:22:00,57.5,56.1,29.86,East,94,0.0,0.0,95,0.00,,,0.01,WeatherCatV1.14B232,2013-07-13 12:22:00,
2013-07-13 06:27:00,57.5,56.1,29.86,East,93,0.0,0.0,95,0.00,,,0.01,WeatherCatV1.14B232,2013-07-13 12:27:00,
2013-07-13 06:32:00,57.5,56.1,29.86,East,93,0.0,0.0,95,0.00,,,0.01,WeatherCatV1.14B232,2013-07-13 12:32:00,
2013-07-13 06:37:00,57.6,56.2,29.86,East,94,0.0,0.0,95,0.00,,,0.01,WeatherCatV1.14B232,2013-07-13 12:37:00,
2013-07-13 06:42:00,57.6,56.2,29.87,East,93,0.0,0.0,95,0.00,,,0.01,WeatherCatV1.14B232,2013-07-13 12:42:00,
2013-07-13 06:47:00,57.7,56.3,29.87,East,94,0.0,0.0,95,0.00,,,0.01,WeatherCatV1.14B232,2013-07-13 12:47:00,
2013-07-13 06:52:00,57.9,56.5,29.87,East,93,0.0,0.0,95,0.00,,,0.01,WeatherCatV1.14B232,2013-07-13 12:52:00,
2013-07-13 06:57:00,58.0,56.3,29.87,East,93,0.0,0.0,94,0.00,,,0.01,WeatherCatV1.14B232,2013-07-13 12:57:00,
2013-07-13 07:02:00,58.0,56.3,29.88,East,93,0.0,0.0,94,0.00,,,0.01,WeatherCatV1.14B232,2013-07-13 13:02:00,
2013-07-13 07:07:00,58.4,57.0,29.87,East,94,0.0,0.0,95,0.00,,,0.01,WeatherCatV1.14B232,2013-07-13 13:07:00,
2013-07-13 07:12:00,59.2,57.2,29.88,East,93,0.0,0.0,93,0.00,,,0.01,WeatherCatV1.14B232,2013-07-13 13:12:00,
2013-07-13 07:17:00,60.7,58.1,29.87,East,94,0.0,1.0,91,0.00,,,0.01,WeatherCatV1.14B232,2013-07-13 13:17:00,
2013-07-13 07:22:00,62.1,58.2,29.88,SW,224,1.0,1.0,87,0.00,,,0.01,WeatherCatV1.14B232,2013-07-13 13:22:00,
2013-07-13 07:27:00,62.9,58.6,29.87,South,172,1.0,1.0,86,0.00,,,0.01,WeatherCatV1.14B232,2013-07-13 13:27:00,
2013-07-13 07:32:00,63.5,58.6,29.87,South,188,0.0,0.0,84,0.00,,,0.01,WeatherCatV1.14B232,2013-07-13 13:32:00,
2013-07-13 07:37:00,64.7,58.4,29.87,South,188,0.0,0.0,80,0.00,,,0.01,WeatherCatV1.14B232,2013-07-13 13:37:00,
2013-07-13 07:42:00,65.0,59.0,29.88,South,188,0.0,0.0,81,0.00,,,0.01,WeatherCatV1.14B232,2013-07-13 13:42:00,
2013-07-13 07:47:00,65.8,58.7,29.88,South,169,1.0,2.0,78,0.00,,,0.01,WeatherCatV1.14B232,2013-07-13 13:47:00,
2013-07-13 07:52:00,66.2,59.1,29.88,SSE,167,0.0,0.0,78,0.00,,,0.01,WeatherCatV1.14B232,2013-07-13 13:52:00,
2013-07-13 07:57:00,65.9,58.1,29.88,WSW,255,0.0,0.0,76,0.00,,,0.01,WeatherCatV1.14B232,2013-07-13 13:57:00,
2013-07-13 08:02:00,65.4,58.7,29.88,WSW,255,0.0,0.0,79,0.00,,,0.01,WeatherCatV1.14B232,2013-07-13 14:02:00,
2013-07-13 08:07:00,66.4,58.2,29.87,SSE,160,0.0,1.0,75,0.00,,,0.01,WeatherCatV1.14B232,2013-07-13 14:07:00,
2013-07-13 08:12:00,67.5,58.9,29.87,SSW,207,0.0,1.0,74,0.00,,,0.01,WeatherCatV1.14B232,2013-07-13 14:12:00,
2013-07-13 08:17:00,68.1,58.7,29.88,NNE,12,0.0,1.0,72,0.00,,,0.01,WeatherCatV1.14B232,2013-07-13 14:17:00,
2013-07-13 08:22:00,68.4,59.4,29.87,SE,131,1.0,1.0,73,0.00,,,0.01,WeatherCatV1.14B232,2013-07-13 14:22:00,
2013-07-13 08:27:00,69.0,58.0,29.87,NE,47,0.0,1.0,68,0.00,,,0.01,WeatherCatV1.14B232,2013-07-13 14:27:00,
2013-07-13 08:32:00,68.8,57.8,29.87,East,91,0.0,1.0,68,0.00,,,0.01,WeatherCatV1.14B232,2013-07-13 14:32:00,
2013-07-13 08:37:00,69.5,58.0,29.87,NE,39,0.0,0.0,67,0.00,,,0.01,WeatherCatV1.14B232,2013-07-13 14:37:00,
2013-07-13 08:42:00,69.8,55.7,29.87,NE,38,1.0,3.0,61,0.00,,,0.01,WeatherCatV1.14B232,2013-07-13 14:42:00,
2013-07-13 08:47:00,69.3,56.6,29.87,NW,316,0.0,2.0,64,0.00,,,0.01,WeatherCatV1.14B232,2013-07-13 14:47:00,
2013-07-13 08:52:00,69.2,56.9,29.86,NNW,347,1.0,1.0,65,0.00,,,0.01,WeatherCatV1.14B232,2013-07-13 14:52:00,
2013-07-13 08:57:00,69.4,56.2,29.86,West,266,0.0,2.0,63,0.00,,,0.01,WeatherCatV1.14B232,2013-07-13 14:57:00,
2013-07-13 09:02:00,69.8,55.7,29.87,NNE,32,0.0,2.0,61,0.00,,,0.01,WeatherCatV1.14B232,2013-07-13 15:02:00,
2013-07-13 09:07:00,69.8,56.6,29.86,North,350,0.0,0.0,63,0.00,,,0.01,WeatherCatV1.14B232,2013-07-13 15:07:00,
2013-07-13 09:12:00,71.4,58.1,29.86,NE,55,0.0,0.0,63,0.00,,,0.01,WeatherCatV1.14B232,2013-07-13 15:12:00,
2013-07-13 09:17:00,72.0,56.9,29.86,NNW,336,1.0,2.0,59,0.00,,,0.01,WeatherCatV1.14B232,2013-07-13 15:17:00,
2013-07-13 09:22:00,71.4,56.8,29.86,NNW,333,2.0,2.0,60,0.00,,,0.01,WeatherCatV1.14B232,2013-07-13 15:22:00,
2013-07-13 09:27:00,72.2,55.6,29.86,North,9,1.0,3.0,56,0.00,,,0.01,WeatherCatV1.14B232,2013-07-13 15:27:00,
2013-07-13 09:32:00,72.6,56.0,29.85,NNW,336,0.0,1.0,56,0.00,,,0.01,WeatherCatV1.14B232,2013-07-13 15:32:00,
2013-07-13 09:37:00,73.9,56.7,29.85,NE,43,1.0,1.0,55,0.00,,,0.01,WeatherCatV1.14B232,2013-07-13 15:37:00,
2013-07-13 09:42:00,73.9,54.6,29.85,SSE,156,1.0,2.0,51,0.00,,,0.01,WeatherCatV1.14B232,2013-07-13 15:42:00,
2013-07-13 09:47:00,74.1,55.9,29.85,SSE,148,1.0,1.0,53,0.00,,,0.01,WeatherCatV1.14B232,2013-07-13 15:47:00,
2013-07-13 09:52:00,75.0,56.2,29.85,East,83,1.0,2.0,52,0.00,,,0.01,WeatherCatV1.14B232,2013-07-13 15:52:00,
2013-07-13 09:57:00,75.0,56.7,29.85,NE,34,0.0,1.0,53,0.00,,,0.01,WeatherCatV1.14B232,2013-07-13 15:57:00,
2013-07-13 10:02:00,75.7,56.3,29.85,SSW,198,1.0,1.0,51,0.00,,,0.01,WeatherCatV1.14B232,2013-07-13 16:02:00,
2013-07-13 10:07:00,75.9,55.9,29.84,SSE,160,1.0,2.0,50,0.00,,,0.01,WeatherCatV1.14B232,2013-07-13 16:07:00,
2013-07-13 10:12:00,76.4,54.7,29.84,South,191,1.0,2.0,47,0.00,,,0.01,WeatherCatV1.14B232,2013-07-13 16:12:00,
2013-07-13 10:17:00,76.3,54.6,29.84,East,86,1.0,2.0,47,0.00,,,0.01,WeatherCatV1.14B232,2013-07-13 16:17:00,
2013-07-13 10:22:00,76.3,55.1,29.84,NNW,348,3.0,5.0,48,0.00,,,0.01,WeatherCatV1.14B232,2013-07-13 16:22:00,
2013-07-13 10:27:00,76.0,56.5,29.84,NE,34,1.0,5.0,51,0.00,,,0.01,WeatherCatV1.14B232,2013-07-13 16:27:00,
2013-07-13 10:32:00,75.9,57.0,29.84,North,9,4.0,5.0,52,0.00,,,0.01,WeatherCatV1.14B232,2013-07-13 16:32:00,
2013-07-13 10:37:00,76.3,57.9,29.83,NW,325,0.0,4.0,53,0.00,,,0.01,WeatherCatV1.14B232,2013-07-13 16:37:00,
2013-07-13 10:42:00,76.2,56.2,29.83,NNE,12,2.0,5.0,50,0.00,,,0.01,WeatherCatV1.14B232,2013-07-13 16:42:00,
2013-07-13 10:47:00,75.6,56.2,29.83,NNW,345,4.0,5.0,51,0.00,,,0.01,WeatherCatV1.14B232,2013-07-13 16:47:00,
2013-07-13 10:52:00,75.2,56.9,29.83,NW,323,1.0,2.0,53,0.00,,,0.01,WeatherCatV1.14B232,2013-07-13 16:52:00,
2013-07-13 10:57:00,75.2,56.3,29.83,WNW,302,0.0,0.0,52,0.00,,,0.01,WeatherCatV1.14B232,2013-07-13 16:57:00,
2013-07-13 11:02:00,75.4,57.1,29.83,NW,309,0.0,0.0,53,0.00,,,0.01,WeatherCatV1.14B232,2013-07-13 17:02:00,
2013-07-13 11:07:00,76.3,55.7,29.83,NNW,337,1.0,2.0,49,0.00,,,0.01,WeatherCatV1.14B232,2013-07-13 17:07:00,
2013-07-13 11:12:00,76.8,55.6,29.82,West,277,1.0,3.0,48,0.00,,,0.01,WeatherCatV1.14B232,2013-07-13 17:12:00,
2013-07-13 11:17:00,77.3,56.6,29.82,North,0,1.0,4.0,49,0.00,,,0.01,WeatherCatV1.14B232,2013-07-13 17:17:00,
2013-07-13 11:22:00,78.3,57.0,29.82,NNW,328,3.0,5.0,48,0.00,,,0.01,WeatherCatV1.14B232,2013-07-13 17:22:00,
2013-07-13 11:27:00,78.8,56.2,29.81,NW,312,1.0,4.0,46,0.00,,,0.01,WeatherCatV1.14B232,2013-07-13 17:27:00,
2013-07-13 11:32:00,79.2,56.6,29.81,NNW,330,2.0,2.0,46,0.00,,,0.01,WeatherCatV1.14B232,2013-07-13 17:32:00,
2013-07-13 11:37:00,79.1,55.3,29.81,NNW,343,2.0,6.0,44,0.00,,,0.01,WeatherCatV1.14B232,2013-07-13 17:37:00,
2013-07-13 11:42:00,79.8,55.3,29.81,North,8,6.0,9.0,43,0.00,,,0.01,WeatherCatV1.14B232,2013-07-13 17:42:00,
2013-07-13 11:47:00,80.3,56.4,29.81,NNW,337,4.0,5.0,44,0.00,,,0.01,WeatherCatV1.14B232,2013-07-13 17:47:00,
2013-07-13 11:52:00,81.3,55.3,29.81,WNW,295,2.0,4.0,41,0.00,,,0.01,WeatherCatV1.14B232,2013-07-13 17:52:00,
2013-07-13 11:57:00,82.0,55.3,29.80,NNW,336,3.0,7.0,40,0.00,,,0.01,WeatherCatV1.14B232,2013-07-13 17:57:00,
2013-07-13 12:02:00,81.7,55.7,29.80,North,359,1.0,3.0,41,0.00,,,0.01,WeatherCatV1.14B232,2013-07-13 18:02:00,
2013-07-13 12:07:00,82.3,54.8,29.80,WNW,288,1.0,6.0,39,0.00,,,0.01,WeatherCatV1.14B232,2013-07-13 18:07:00,
2013-07-13 12:12:00,83.1,55.5,29.80,NW,323,6.0,7.0,39,0.00,,,0.01,WeatherCatV1.14B232,2013-07-13 18:12:00,
2013-07-13 12:17:00,83.1,56.2,29.80,North,1,4.0,7.0,40,0.00,,,0.01,WeatherCatV1.14B232,2013-07-13 18:17:00,
2013-07-13 12:22:00,82.3,56.2,29.80,NNW,333,3.0,8.0,41,0.00,,,0.01,WeatherCatV1.14B232,2013-07-13 18:22:00,
2013-07-13 12:27:00,81.4,54.7,29.80,NNW,332,2.0,8.0,40,0.00,,,0.01,WeatherCatV1.14B232,2013-07-13 18:27:00,
2013-07-13 12:32:00,81.3,55.3,29.80,NNW,343,4.0,10.0,41,0.00,,,0.01,WeatherCatV1.14B232,2013-07-13 18:32:00,
2013-07-13 12:37:00,80.8,54.9,29.80,NNW,337,5.0,8.0,41,0.00,,,0.01,WeatherCatV1.14B232,2013-07-13 18:37:00,
2013-07-13 12:42:00,79.7,55.8,29.80,NW,322,5.0,15.0,44,0.00,,,0.01,WeatherCatV1.14B232,2013-07-13 18:42:00,
2013-07-13 12:47:00,78.3,56.4,29.80,NNW,334,6.0,9.0,47,0.00,,,0.01,WeatherCatV1.14B232,2013-07-13 18:47:00,
2013-07-13 12:52:00,77.0,57.5,29.80,North,352,6.0,8.0,51,0.00,,,0.01,WeatherCatV1.14B232,2013-07-13 18:52:00,
2013-07-13 12:57:00,75.5,58.2,29.80,NNW,341,3.0,6.0,55,0.00,,,0.01,WeatherCatV1.14B232,2013-07-13 18:57:00,
2013-07-13 13:02:00,75.1,58.8,29.80,NNW,332,4.0,6.0,57,0.00,,,0.01,WeatherCatV1.14B232,2013-07-13 19:02:00,
2013-07-13 13:07:00,75.3,59.0,29.80,West,269,3.0,8.0,57,0.00,,,0.01,WeatherCatV1.14B232,2013-07-13 19:07:00,
2013-07-13 13:12:00,75.7,58.9,29.79,North,358,7.0,8.0,56,0.00,,,0.01,WeatherCatV1.14B232,2013-07-13 19:12:00,
2013-07-13 13:17:00,76.8,58.9,29.79,NW,321,2.0,6.0,54,0.00,,,0.01,WeatherCatV1.14B232,2013-07-13 19:17:00,
2013-07-13 13:22:00,78.1,57.4,29.79,NNE,18,9.0,10.0,49,0.00,,,0.01,WeatherCatV1.14B232,2013-07-13 19:22:00,
2013-07-13 13:27:00,78.7,57.3,29.79,North,350,8.0,9.0,48,0.00,,,0.01,WeatherCatV1.14B232,2013-07-13 19:27:00,
2013-07-13 13:32:00,79.0,57.6,29.78,West,276,8.0,9.0,48,0.00,,,0.01,WeatherCatV1.14B232,2013-07-13 19:32:00,
2013-07-13 13:37:00,79.3,57.3,29.78,North,11,5.0,7.0,47,0.00,,,0.01,WeatherCatV1.14B232,2013-07-13 19:37:00,
2013-07-13 13:42:00,79.6,56.4,29.78,North,358,6.0,8.0,45,0.00,,,0.01,WeatherCatV1.14B232,2013-07-13 19:42:00,
2013-07-13 13:47:00,80.3,55.1,29.77,NNW,336,4.0,7.0,42,0.00,,,0.01,WeatherCatV1.14B232,2013-07-13 19:47:00,
2013-07-13 13:52:00,81.7,55.7,29.77,NNW,328,4.0,6.0,41,0.00,,,0.01,WeatherCatV1.14B232,2013-07-13 19:52:00,
2013-07-13 13:57:00,81.9,54.5,29.77,North,5,6.0,8.0,39,0.00,,,0.01,WeatherCatV1.14B232,2013-07-13 19:57:00,
2013-07-13 14:02:00,81.4,54.7,29.77,NNW,329,1.0,5.0,40,0.00,,,0.01,WeatherCatV1.14B232,2013-07-13 20:02:00,
2013-07-13 14:07:00,81.5,54.8,29.77,WNW,293,3.0,6.0,40,0.00,,,0.01,WeatherCatV1.14B232,2013-07-13 20:07:00,
2013-07-13 14:12:00,81.5,54.8,29.77,NW,305,1.0,3.0,40,0.00,,,0.01,WeatherCatV1.14B232,2013-07-13 20:12:00,
2013-07-13 14:17:00,81.7,54.3,29.77,North,358,3.0,4.0,39,0.00,,,0.01,WeatherCatV1.14B232,2013-07-13 20:17:00,
2013-07-13 14:22:00,81.5,53.4,29.77,WNW,288,3.0,4.0,38,0.00,,,0.01,WeatherCatV1.14B232,2013-07-13 20:22:00,
2013-07-13 14:27:00,81.3,53.9,29.76,North,350,1.0,2.0,39,0.00,,,0.01,WeatherCatV1.14B232,2013-07-13 20:27:00,
2013-07-13 14:32:00,81.1,53.8,29.76,NW,316,0.0,3.0,39,0.00,,,0.01,WeatherCatV1.14B232,2013-07-13 20:32:00,
2013-07-13 14:37:00,81.0,54.4,29.76,WNW,291,2.0,4.0,40,0.00,,,0.01,WeatherCatV1.14B232,2013-07-13 20:37:00,
2013-07-13 14:42:00,81.5,54.1,29.76,WNW,300,3.0,3.0,39,0.00,,,0.01,WeatherCatV1.14B232,2013-07-13 20:42:00,
2013-07-13 14:47:00,81.8,54.4,29.76,North,358,2.0,3.0,39,0.00,,,0.01,WeatherCatV1.14B232,2013-07-13 20:47:00,
2013-07-13 14:52:00,82.1,55.4,29.76,NNE,27,1.0,3.0,40,0.00,,,0.01,WeatherCatV1.14B232,2013-07-13 20:52:00,
2013-07-13 14:57:00,82.7,53.0,29.76,NE,49,3.0,4.0,36,0.00,,,0.01,WeatherCatV1.14B232,2013-07-13 20:57:00,
2013-07-13 15:02:00,82.5,52.1,29.75,NE,47,1.0,3.0,35,0.00,,,0.01,WeatherCatV1.14B232,2013-07-13 21:02:00,
2013-07-13 15:07:00,82.8,53.1,29.75,NNW,334,2.0,6.0,36,0.00,,,0.01,WeatherCatV1.14B232,2013-07-13 21:07:00,
2013-07-13 15:12:00,82.5,53.6,29.75,NNW,336,6.0,7.0,37,0.00,,,0.01,WeatherCatV1.14B232,2013-07-13 21:12:00,
2013-07-13 15:17:00,82.5,55.0,29.75,NW,306,3.0,9.0,39,0.00,,,0.01,WeatherCatV1.14B232,2013-07-13 21:17:00,
2013-07-13 15:22:00,83.0,54.7,29.75,NNW,330,5.0,15.0,38,0.00,,,0.01,WeatherCatV1.14B232,2013-07-13 21:22:00,
2013-07-13 15:27:00,83.2,54.2,29.75,North,354,10.0,15.0,37,0.00,,,0.01,WeatherCatV1.14B232,2013-07-13 21:27:00,
2013-07-13 15:32:00,83.0,56.2,29.75,NNE,15,4.0,8.0,40,0.00,,,0.01,WeatherCatV1.14B232,2013-07-13 21:32:00,
2013-07-13 15:37:00,82.9,56.1,29.75,NW,312,10.0,14.0,40,0.00,,,0.01,WeatherCatV1.14B232,2013-07-13 21:37:00,
2013-07-13 15:42:00,82.8,56.0,29.75,NNE,13,2.0,9.0,40,0.00,,,0.01,WeatherCatV1.14B232,2013-07-13 21:42:00,
2013-07-13 15:47:00,83.2,54.2,29.75,NNW,333,11.0,16.0,37,0.00,,,0.01,WeatherCatV1.14B232,2013-07-13 21:47:00,
2013-07-13 15:52:00,83.2,55.6,29.74,NW,321,3.0,7.0,39,0.00,,,0.01,WeatherCatV1.14B232,2013-07-13 21:52:00,
2013-07-13 15:57:00,84.0,54.9,29.74,NNW,348,3.0,11.0,37,0.00,,,0.01,WeatherCatV1.14B232,2013-07-13 21:57:00,
2013-07-13 16:02:00,84.2,54.3,29.74,NNW,344,8.0,11.0,36,0.00,,,0.01,WeatherCatV1.14B232,2013-07-13 22:02:00,
2013-07-13 16:07:00,84.3,55.2,29.74,ENE,70,7.0,12.0,37,0.00,,,0.01,WeatherCatV1.14B232,2013-07-13 22:07:00,
2013-07-13 16:12:00,84.5,55.3,29.73,NW,326,5.0,11.0,37,0.00,,,0.01,WeatherCatV1.14B232,2013-07-13 22:12:00,
2013-07-13 16:17:00,84.6,54.7,29.73,North,350,9.0,12.0,36,0.00,,,0.01,WeatherCatV1.14B232,2013-07-13 22:17:00,
2013-07-13 16:22:00,84.6,53.9,29.73,NE,46,5.0,18.0,35,0.00,,,0.01,WeatherCatV1.14B232,2013-07-13 22:22:00,
2013-07-13 16:27:00,84.5,53.8,29.72,NNE,15,10.0,10.0,35,0.00,,,0.01,WeatherCatV1.14B232,2013-07-13 22:27:00,
2013-07-13 16:32:00,84.7,54.0,29.72,NNW,329,7.0,13.0,35,0.00,,,0.01,WeatherCatV1.14B232,2013-07-13 22:32:00,
2013-07-13 16:37:00,84.8,52.5,29.72,NNW,340,9.0,11.0,33,0.00,,,0.01,WeatherCatV1.14B232,2013-07-13 22:37:00,
2013-07-13 16:42:00,84.8,52.5,29.72,NNW,345,3.0,6.0,33,0.00,,,0.01,WeatherCatV1.14B232,2013-07-13 22:42:00,
2013-07-13 16:47:00,84.8,51.6,29.72,NE,34,7.0,10.0,32,0.00,,,0.01,WeatherCatV1.14B232,2013-07-13 22:47:00,
2013-07-13 16:52:00,84.8,51.6,29.72,NNW,333,3.0,6.0,32,0.00,,,0.01,WeatherCatV1.14B232,2013-07-13 22:52:00,
2013-07-13 16:57:00,84.6,51.5,29.72,WNW,301,2.0,6.0,32,0.00,,,0.01,WeatherCatV1.14B232,2013-07-13 22:57:00,
2013-07-13 17:02:00,84.3,52.8,29.72,West,272,2.0,3.0,34,0.00,,,0.01,WeatherCatV1.14B232,2013-07-13 23:02:00,
2013-07-13 17:07:00,84.3,51.2,29.72,West,264,2.0,5.0,32,0.00,,,0.01,WeatherCatV1.14B232,2013-07-13 23:07:00,
2013-07-13 17:12:00,84.4,51.3,29.72,SSE,165,2.0,7.0,32,0.00,,,0.01,WeatherCatV1.14B232,2013-07-13 23:12:00,
2013-07-13 17:17:00,83.9,52.5,29.72,SSW,208,6.0,7.0,34,0.00,,,0.01,WeatherCatV1.14B232,2013-07-13 23:17:00,
2013-07-13 17:22:00,83.5,52.9,29.72,SW,232,2.0,2.0,35,0.00,,,0.01,WeatherCatV1.14B232,2013-07-13 23:22:00,
2013-07-13 17:27:00,83.6,51.4,29.72,NNW,337,2.0,3.0,33,0.00,,,0.01,WeatherCatV1.14B232,2013-07-13 23:27:00,
2013-07-13 17:32:00,83.7,51.5,29.72,East,97,1.0,2.0,33,0.00,,,0.01,WeatherCatV1.14B232,2013-07-13 23:32:00,
2013-07-13 17:37:00,83.7,52.3,29.72,South,172,0.0,2.0,34,0.00,,,0.01,WeatherCatV1.14B232,2013-07-13 23:37:00,
2013-07-13 17:42:00,83.5,53.7,29.73,ESE,106,2.0,5.0,36,0.00,,,0.01,WeatherCatV1.14B232,2013-07-13 23:42:00,
2013-07-13 17:47:00,83.2,51.1,29.73,SE,143,5.0,13.0,33,0.00,,,0.01,WeatherCatV1.14B232,2013-07-13 23:47:00,
2013-07-13 17:52:00,82.2,51.0,29.74,SSE,161,7.0,13.0,34,0.00,,,0.01,WeatherCatV1.14B232,2013-07-13 23:52:00,
2013-07-13 17:57:00,79.3,52.2,29.74,West,259,5.0,10.0,39,0.00,,,0.01,WeatherCatV1.14B232,2013-07-13 23:57:00,
2013-07-13 18:02:00,78.4,52.1,29.74,SSE,150,4.0,4.0,40,0.00,,,0.01,WeatherCatV1.14B232,2013-07-14 00:02:00,
2013-07-13 18:07:00,77.8,56.5,29.74,ESE,105,2.0,8.0,48,0.00,,,0.01,WeatherCatV1.14B232,2013-07-14 00:07:00,
2013-07-13 18:12:00,75.8,56.4,29.74,ESE,122,1.0,5.0,51,0.00,,,0.01,WeatherCatV1.14B232,2013-07-14 00:12:00,
2013-07-13 18:17:00,75.0,56.7,29.74,ESE,102,1.0,7.0,53,0.00,,,0.01,WeatherCatV1.14B232,2013-07-14 00:17:00,
2013-07-13 18:22:00,74.3,58.1,29.74,SE,124,0.0,2.0,57,0.00,,,0.01,WeatherCatV1.14B232,2013-07-14 00:22:00,
2013-07-13 18:27:00,73.5,60.1,29.74,West,269,2.0,3.0,63,0.00,,,0.01,WeatherCatV1.14B232,2013-07-14 00:27:00,
2013-07-13 18:32:00,72.9,60.9,29.75,NW,309,9.0,10.0,66,0.00,,,0.01,WeatherCatV1.14B232,2013-07-14 00:32:00,
2013-07-13 18:37:00,73.0,59.2,29.74,North,1,1.0,2.0,62,0.19,,,0.03,WeatherCatV1.14B232,2013-07-14 00:37:00,
2013-07-13 18:42:00,71.5,60.0,29.74,SW,235,0.0,1.0,67,0.07,,,0.03,WeatherCatV1.14B232,2013-07-14 00:42:00,
2013-07-13 18:47:00,70.9,62.2,29.74,SW,226,0.0,0.0,74,0.05,,,0.03,WeatherCatV1.14B232,2013-07-14 00:47:00,
2013-07-13 18:52:00,70.6,59.1,29.74,NNW,338,3.0,7.0,67,0.00,,,0.03,WeatherCatV1.14B232,2013-07-14 00:52:00,
2013-07-13 18:57:00,71.4,59.0,29.74,NW,309,0.0,0.0,65,0.00,,,0.03,WeatherCatV1.14B232,2013-07-14 00:57:00,
2013-07-13 19:02:00,71.3,61.0,29.73,NNW,340,0.0,0.0,70,0.00,,,0.03,WeatherCatV1.14B232,2013-07-14 01:02:00,
2013-07-13 19:07:00,71.7,61.0,29.73,SW,224,0.0,1.0,69,0.00,,,0.03,WeatherCatV1.14B232,2013-07-14 01:07:00,
2013-07-13 19:12:00,72.6,59.3,29.74,WSW,252,0.0,1.0,63,0.00,,,0.03,WeatherCatV1.14B232,2013-07-14 01:12:00,
2013-07-13 19:17:00,72.9,60.0,29.73,West,259,0.0,0.0,64,0.00,,,0.03,WeatherCatV1.14B232,2013-07-14 01:17:00,
2013-07-13 19:22:00,72.7,59.8,29.73,West,273,0.0,0.0,64,0.00,,,0.03,WeatherCatV1.14B232,2013-07-14 01:22:00,
2013-07-13 19:27:00,72.3,62.4,29.74,West,273,0.0,0.0,71,0.00,,,0.03,WeatherCatV1.14B232,2013-07-14 01:27:00,
2013-07-13 19:32:00,71.7,58.4,29.74,SSE,162,0.0,2.0,63,0.00,,,0.03,WeatherCatV1.14B232,2013-07-14 01:32:00,
2013-07-13 19:37:00,71.6,61.7,29.74,SSE,164,0.0,0.0,71,0.00,,,0.03,WeatherCatV1.14B232,2013-07-14 01:37:00,
2013-07-13 19:42:00,71.3,57.6,29.74,SSE,163,0.0,0.0,62,0.00,,,0.03,WeatherCatV1.14B232,2013-07-14 01:42:00,
2013-07-13 19:47:00,71.3,57.6,29.75,East,86,0.0,2.0,62,0.00,,,0.03,WeatherCatV1.14B232,2013-07-14 01:47:00,
2013-07-13 19:52:00,71.6,57.0,29.75,East,94,0.0,3.0,60,0.00,,,0.03,WeatherCatV1.14B232,2013-07-14 01:52:00,
2013-07-13 19:57:00,71.6,57.0,29.75,SW,231,1.0,3.0,60,0.00,,,0.03,WeatherCatV1.14B232,2013-07-14 01:57:00,
2013-07-13 20:02:00,71.2,57.9,29.75,West,269,1.0,2.0,63,0.00,,,0.03,WeatherCatV1.14B232,2013-07-14 02:02:00,
2013-07-13 20:07:00,70.8,57.1,29.75,WSW,245,0.0,1.0,62,0.00,,,0.03,WeatherCatV1.14B232,2013-07-14 02:07:00,
2013-07-13 20:12:00,70.4,57.6,29.75,WSW,248,0.0,0.0,64,0.00,,,0.03,WeatherCatV1.14B232,2013-07-14 02:12:00,
2013-07-13 20:17:00,70.1,57.8,29.75,NW,311,0.0,0.0,65,0.00,,,0.03,WeatherCatV1.14B232,2013-07-14 02:17:00,
2013-07-13 20:22:00,69.9,57.6,29.75,WNW,287,0.0,1.0,65,0.00,,,0.03,WeatherCatV1.14B232,2013-07-14 02:22:00,
2013-07-13 20:27:00,69.6,58.1,29.75,WNW,287,0.0,1.0,67,0.00,,,0.03,WeatherCatV1.14B232,2013-07-14 02:27:00,
2013-07-13 20:32:00,69.2,59.0,29.75,WNW,287,0.0,0.0,70,0.00,,,0.03,WeatherCatV1.14B232,2013-07-14 02:32:00,
2013-07-13 20:37:00,68.7,58.9,29.75,North,1,0.0,0.0,71,0.00,,,0.03,WeatherCatV1.14B232,2013-07-14 02:37:00,
2013-07-13 20:42:00,68.2,57.6,29.75,North,1,0.0,0.0,69,0.00,,,0.03,WeatherCatV1.14B232,2013-07-14 02:42:00,
2013-07-13 20:47:00,67.9,58.5,29.75,North,1,0.0,0.0,72,0.00,,,0.03,WeatherCatV1.14B232,2013-07-14 02:47:00,
2013-07-13 20:52:00,67.5,59.3,29.76,North,1,0.0,0.0,75,0.00,,,0.03,WeatherCatV1.14B232,2013-07-14 02:52:00,
2013-07-13 20:57:00,66.9,57.6,29.76,North,1,0.0,0.0,72,0.00,,,0.03,WeatherCatV1.14B232,2013-07-14 02:57:00,
2013-07-13 21:02:00,66.5,57.6,29.76,North,1,0.0,0.0,73,0.00,,,0.03,WeatherCatV1.14B232,2013-07-14 03:02:00,
2013-07-13 21:07:00,66.6,58.8,29.76,North,1,0.0,0.0,76,0.00,,,0.03,WeatherCatV1.14B232,2013-07-14 03:07:00,
2013-07-13 21:12:00,66.3,58.5,29.77,North,1,0.0,0.0,76,0.00,,,0.03,WeatherCatV1.14B232,2013-07-14 03:12:00,
2013-07-13 21:17:00,66.6,58.0,29.77,North,1,0.0,0.0,74,0.00,,,0.03,WeatherCatV1.14B232,2013-07-14 03:17:00,
2013-07-13 21:22:00,67.1,58.5,29.77,North,1,0.0,0.0,74,0.00,,,0.03,WeatherCatV1.14B232,2013-07-14 03:22:00,
2013-07-13 21:27:00,67.2,57.9,29.77,North,1,0.0,0.0,72,0.00,,,0.03,WeatherCatV1.14B232,2013-07-14 03:27:00,
2013-07-13 21:32:00,67.3,58.7,29.77,North,1,0.0,0.0,74,0.00,,,0.03,WeatherCatV1.14B232,2013-07-14 03:32:00,
2013-07-13 21:37:00,67.3,58.3,29.77,South,181,1.0,1.0,73,0.00,,,0.03,WeatherCatV1.14B232,2013-07-14 03:37:00,
2013-07-13 21:42:00,67.1,57.8,29.78,SSW,207,2.0,2.0,72,0.00,,,0.03,WeatherCatV1.14B232,2013-07-14 03:42:00,
2013-07-13 21:47:00,67.0,57.3,29.78,South,184,0.0,0.0,71,0.00,,,0.03,WeatherCatV1.14B232,2013-07-14 03:47:00,
2013-07-13 21:52:00,66.9,57.6,29.78,South,184,0.0,0.0,72,0.00,,,0.03,WeatherCatV1.14B232,2013-07-14 03:52:00,
2013-07-13 21:57:00,66.7,57.0,29.78,South,185,0.0,0.0,71,0.00,,,0.03,WeatherCatV1.14B232,2013-07-14 03:57:00,
2013-07-13 22:01:00,66.5,57.6,29.78,South,184,0.0,0.0,73,0.00,,,0.03,WeatherCatV1.14B232,2013-07-14 04:01:00,
2013-07-13 22:06:00,66.0,58.6,29.79,South,185,0.0,0.0,77,0.00,,,0.03,WeatherCatV1.14B232,2013-07-14 04:06:00,
2013-07-13 22:11:00,65.2,57.8,29.80,South,184,0.0,0.0,77,0.00,,,0.03,WeatherCatV1.14B232,2013-07-14 04:11:00,
2013-07-13 22:16:00,64.9,56.4,29.80,WNW,284,0.0,1.0,74,0.00,,,0.03,WeatherCatV1.14B232,2013-07-14 04:16:00,
2013-07-13 22:21:00,64.9,56.4,29.80,WNW,284,0.0,0.0,74,0.00,,,0.03,WeatherCatV1.14B232,2013-07-14 04:21:00,
2013-07-13 22:26:00,64.6,57.2,29.80,SSE,165,1.0,1.0,77,0.00,,,0.03,WeatherCatV1.14B232,2013-07-14 04:26:00,
2013-07-13 22:31:00,64.2,56.5,29.80,SSE,167,1.0,1.0,76,0.00,,,0.03,WeatherCatV1.14B232,2013-07-14 04:31:00,
2013-07-13 22:36:00,64.1,56.7,29.80,SSE,165,0.0,0.0,77,0.00,,,0.03,WeatherCatV1.14B232,2013-07-14 04:36:00,
2013-07-13 22:41:00,63.7,56.3,29.81,SSE,166,0.0,0.0,77,0.00,,,0.03,WeatherCatV1.14B232,2013-07-14 04:41:00,
2013-07-13 22:46:00,63.2,56.6,29.81,South,170,1.0,1.0,79,0.00,,,0.03,WeatherCatV1.14B232,2013-07-14 04:46:00,
2013-07-13 22:51:00,62.9,55.6,29.81,SW,214,1.0,3.0,77,0.00,,,0.03,WeatherCatV1.14B232,2013-07-14 04:51:00,
2013-07-13 22:56:00,62.8,53.3,29.81,SW,228,1.0,1.0,71,0.00,,,0.03,WeatherCatV1.14B232,2013-07-14 04:56:00,
2013-07-13 23:01:00,63.0,55.3,29.81,ENE,57,1.0,1.0,76,0.00,,,0.03,WeatherCatV1.14B232,2013-07-14 05:01:00,
2013-07-13 23:06:00,62.9,55.6,29.82,WNW,293,0.0,1.0,77,0.00,,,0.03,WeatherCatV1.14B232,2013-07-14 05:06:00,
2013-07-13 23:11:00,62.6,54.6,29.81,WNW,297,0.0,1.0,75,0.00,,,0.03,WeatherCatV1.14B232,2013-07-14 05:11:00,
2013-07-13 23:16:00,62.2,54.9,29.82,WNW,297,0.0,0.0,77,0.00,,,0.03,WeatherCatV1.14B232,2013-07-14 05:16:00,
2013-07-13 23:21:00,62.0,55.1,29.82,WNW,297,0.0,1.0,78,0.00,,,0.03,WeatherCatV1.14B232,2013-07-14 05:21:00,
2013-07-13 23:26:00,61.7,55.1,29.82,WNW,297,0.0,0.0,79,0.00,,,0.03,WeatherCatV1.14B232,2013-07-14 05:26:00,
2013-07-13 23:31:00,61.5,55.3,29.83,WNW,296,0.0,0.0,80,0.00,,,0.03,WeatherCatV1.14B232,2013-07-14 05:31:00,
2013-07-13 23:36:00,61.2,55.3,29.83,WNW,297,0.0,0.0,81,0.00,,,0.03,WeatherCatV1.14B232,2013-07-14 05:36:00,
2013-07-13 23:41:00,60.9,55.0,29.83,South,172,0.0,0.0,81,0.00,,,0.03,WeatherCatV1.14B232,2013-07-14 05:41:00,
2013-07-13 23:46:00,60.6,55.1,29.83,South,172,0.0,0.0,82,0.00,,,0.03,WeatherCatV1.14B232,2013-07-14 05:46:00,
2013-07-13 23:51:00,60.2,55.0,29.83,South,172,0.0,0.0,83,0.00,,,0.03,WeatherCatV1.14B232,2013-07-14 05:51:00,
2013-07-13 23:56:00,59.9,54.7,29.83,South,172,0.0,0.0,83,0.00,,,0.03,WeatherCatV1.14B232,2013-07-14 05:56:00,